COSMOS 2432 (719) (32276 NORAD) Tracking and Keplerian Element Data

This shows tracking and keplerian element data for the satellite.

Feedback or suggestion? Click here.




ElementValue
Catalog32276
NameCOSMOS 2432 (719)
Epoch Orbit8597
Epoch Day315.74210413
Epoch Year2018
RAAN48.4963
Inclination65.7698
Eccentricity0.0009269
Argument of Perigee329.0153
Mean Anonmoly45.7239
Mean Motion2.13103745
Decay Rate-5.7E-07
L11 32276U 07052B 18315.74210413 -.00000057 00000-0 10000-3 0 9991
L22 32276 65.7698 48.4963 0009269 329.0153 45.7239 2.13103745 85971

Live tracking and technical data element details for COSMOS 2432 (719) (NORAD 32276). COSMOS 2432 (719) can be tracked NOW for your location showing map with azimuth and elevation plus other details from your city location.

Track the satellite on the map from your city or location and see movement details for azimuth, elevation, latitude, longitude, range, height, and movement on the map or in text.







IsCatalogInMostPopularTable: catalog: 32276, numindb: 56
Update: records affected: 1



GetName: 32276 COSMOS 2432 (719)

Hit Count: updated at: Mon, 12 Nov 2018 21:43:03 GMT